| time (UTC) | temp F | wind direction | speed MPH | gust MPH | rain 1hr in | rain 24hr in | rain mn in | humidity % | barometer mb |
| 20260906114523 | 47 | 37 | 0.0 | 0.0 | 0.00 | 0.01 | 0.00 | 83 | 1001.4 |
| 20260906113019 | 47 | 260 | 0.0 | 0.0 | 0.00 | 0.01 | 0.00 | 81 | 1001.9 |
| 20260906111516 | 47 | 252 | 0.0 | 0.0 | 0.00 | 0.01 | 0.00 | 81 | 1001.8 |
| 20260906110015 | 46 | 44 | 0.0 | 0.0 | 0.00 | 0.01 | 0.00 | 83 | 1001.7 |
| 20260906104514 | 47 | 28 | 0.0 | 0.0 | 0.00 | 0.01 | 0.00 | 83 | 1001.7 |
| 20260906103013 | 48 | 41 | 0.0 | 0.0 | 0.00 | 0.01 | 0.00 | 83 | 1002.0 |
| 20260906101514 | 48 | 260 | 0.0 | 0.0 | 0.00 | 0.01 | 0.00 | 83 | 1001.8 |
| 20260906100010 | 48 | 288 | 0.0 | 0.0 | 0.00 | 0.01 | 0.00 | 84 | 1002.0 |
| 20260906094507 | 47 | 37 | 0.0 | 0.0 | 0.00 | 0.01 | 0.00 | 84 | 1002.2 |
| 20260906093014 | 46 | 37 | 0.0 | 0.0 | 0.00 | 0.01 | 0.00 | 82 | 1002.4 |
| 20260906091505 | 45 | 46 | 0.0 | 0.0 | 0.00 | 0.01 | 0.00 | 83 | 1002.2 |
| 20260906090003 | 45 | 44 | 0.0 | 0.0 | 0.00 | 0.01 | 0.00 | 83 | 1001.9 |
| 20260906084612 | 45 | 46 | 0.0 | 0.0 | 0.00 | 0.01 | 0.00 | 83 | 1001.7 |
| 20260906083059 | 45 | 48 | 0.0 | 0.0 | 0.00 | 0.01 | 0.00 | 83 | 1001.8 |
| 20260906081600 | 45 | 46 | 0.0 | 0.0 | 0.00 | 0.01 | 0.00 | 83 | 1002.0 |
| 20260906080055 | 45 | 44 | 0.0 | 0.0 | 0.00 | 0.01 | 0.00 | 83 | 1002.4 |
| 20260906074553 | 45 | 46 | 0.0 | 0.0 | 0.00 | 0.01 | 0.00 | 84 | 1002.4 |
| 20260906073056 | 46 | 43 | 0.0 | 0.0 | 0.00 | 0.01 | 0.00 | 83 | 1002.7 |
| 20260906071545 | 46 | 46 | 0.0 | 0.0 | 0.00 | 0.01 | 0.00 | 83 | 1002.7 |
| 20260906070053 | 47 | 48 | 0.0 | 0.0 | 0.00 | 0.01 | 0.00 | 83 | 1002.9 |
| 20260906064541 | 46 | 44 | 0.0 | 0.0 | 0.00 | 0.01 | 0.01 | 82 | 1002.9 |
| 20260906063042 | 46 | 49 | 0.0 | 0.0 | 0.00 | 0.01 | 0.01 | 83 | 1002.9 |
| 20260906061553 | 46 | 290 | 0.0 | 0.0 | 0.00 | 0.01 | 0.01 | 83 | 1003.0 |
| 20260906060041 | 46 | 37 | 0.0 | 0.0 | 0.00 | 0.01 | 0.01 | 83 | 1003.1 |
| 20260906054539 | 46 | 49 | 0.0 | 0.0 | 0.00 | 0.01 | 0.01 | 83 | 1003.2 |
| 20260906053044 | 46 | 32 | 0.0 | 0.0 | 0.00 | 0.01 | 0.01 | 83 | 1003.2 |
| 20260906051539 | 47 | 42 | 0.0 | 0.0 | 0.00 | 0.01 | 0.01 | 83 | 1003.2 |
| 20260906050050 | 47 | 44 | 0.0 | 1.0 | 0.00 | 0.01 | 0.01 | 82 | 1003.3 |
| 20260906044539 | 47 | 44 | 0.0 | 0.0 | 0.00 | 0.01 | 0.01 | 81 | 1003.4 |
| 20260906043045 | 48 | 49 | 0.0 | 0.0 | 0.00 | 0.01 | 0.01 | 80 | 1003.4 |
| 20260906041538 | 49 | 46 | 0.0 | 0.0 | 0.00 | 0.01 | 0.01 | 80 | 1003.4 |
| 20260906040048 | 50 | 49 | 0.0 | 0.0 | 0.00 | 0.01 | 0.01 | 78 | 1003.3 |
| 20260906034537 | 50 | 44 | 0.0 | 1.0 | 0.00 | 0.01 | 0.01 | 77 | 1003.3 |
| 20260906033038 | 51 | 44 | 0.0 | 0.0 | 0.00 | 0.01 | 0.01 | 77 | 1003.2 |
| 20260906031537 | 52 | 42 | 0.0 | 0.0 | 0.00 | 0.01 | 0.01 | 78 | 1003.2 |
| 20260906030036 | 54 | 51 | 0.0 | 0.0 | 0.00 | 0.01 | 0.01 | 75 | 1003.0 |
| 20260906024536 | 54 | 41 | 0.0 | 0.0 | 0.00 | 0.01 | 0.01 | 73 | 1002.8 |
| 20260906023044 | 55 | 46 | 0.0 | 1.0 | 0.00 | 0.01 | 0.01 | 70 | 1002.5 |
| 20260906021534 | 56 | 42 | 0.0 | 1.0 | 0.00 | 0.01 | 0.01 | 67 | 1002.3 |
| 20260906020035 | 57 | 44 | 0.0 | 1.0 | 0.00 | 0.01 | 0.01 | 70 | 1002.2 |
| 20260906014543 | 58 | 36 | 0.0 | 0.0 | 0.00 | 0.01 | 0.01 | 65 | 1002.3 |
| 20260906013034 | 60 | 36 | 0.0 | 0.0 | 0.00 | 0.01 | 0.01 | 65 | 1002.2 |
| 20260906011535 | 61 | 36 | 0.0 | 0.0 | 0.00 | 0.01 | 0.01 | 61 | 1002.0 |
| 20260906010032 | 63 | 36 | 0.0 | 0.0 | 0.00 | 0.01 | 0.01 | 56 | 1001.9 |
| 20260906004531 | 65 | 36 | 0.0 | 0.0 | 0.00 | 0.01 | 0.01 | 47 | 1001.8 |
| 20260906003031 | 66 | 36 | 0.0 | 0.0 | 0.00 | 0.01 | 0.01 | 53 | 1001.9 |
| 20260906001531 | 67 | 36 | 0.0 | 0.0 | 0.00 | 0.01 | 0.01 | 49 | 1002.0 |
| 20260906000030 | 67 | 19 | 0.0 | 3.0 | 0.00 | 0.01 | 0.01 | 43 | 1001.9 |
| 20260905234529 | 67 | 53 | 0.0 | 3.0 | 0.00 | 0.01 | 0.01 | 44 | 1001.9 |
| 20260905233028 | 67 | 46 | 0.0 | 3.0 | 0.00 | 0.01 | 0.01 | 43 | 1001.8 |
| 20260905231528 | 67 | 355 | 0.0 | 3.0 | 0.00 | 0.01 | 0.01 | 43 | 1001.9 |
| 20260905230027 | 68 | 30 | 0.0 | 1.0 | 0.00 | 0.01 | 0.01 | 40 | 1002.1 |
| 20260905224533 | 68 | 47 | 2.0 | 5.0 | 0.00 | 0.01 | 0.01 | 41 | 1002.1 |
| 20260905223032 | 70 | 283 | 0.0 | 2.0 | 0.00 | 0.01 | 0.01 | 41 | 1002.0 |
| 20260905221522 | 69 | 264 | 0.0 | 3.0 | 0.00 | 0.01 | 0.01 | 41 | 1002.3 |
| 20260905220019 | 68 | 41 | 1.0 | 4.0 | 0.00 | 0.01 | 0.01 | 43 | 1002.5 |
| 20260905214518 | 68 | 60 | 2.0 | 5.0 | 0.00 | 0.01 | 0.01 | 44 | 1002.7 |
| 20260905213019 | 70 | 321 | 0.0 | 3.0 | 0.00 | 0.01 | 0.01 | 43 | 1002.7 |
| 20260905211515 | 68 | 225 | 0.0 | 5.0 | 0.00 | 0.01 | 0.01 | 48 | 1002.7 |
| 20260905210014 | 68 | 339 | 1.0 | 5.0 | 0.00 | 0.01 | 0.01 | 47 | 1002.9 |
| 20260905204514 | 68 | 45 | 4.0 | 7.0 | 0.00 | 0.01 | 0.01 | 47 | 1003.0 |
| 20260905203012 | 69 | 218 | 0.0 | 1.0 | 0.00 | 0.01 | 0.01 | 49 | 1003.2 |
| 20260905201515 | 69 | 180 | 0.0 | 2.0 | 0.00 | 0.01 | 0.01 | 48 | 1003.2 |
| 20260905200006 | 68 | 143 | 0.0 | 2.0 | 0.00 | 0.01 | 0.01 | 52 | 1003.5 |
| 20260905194502 | 65 | 260 | 0.0 | 4.0 | 0.00 | 0.01 | 0.01 | 55 | 1003.5 |
| 20260905193100 | 66 | 57 | 0.0 | 5.0 | 0.00 | 0.01 | 0.01 | 57 | 1003.7 |
| 20260905191600 | 65 | 155 | 0.0 | 3.0 | 0.00 | 0.01 | 0.01 | 60 | 1003.9 |
| 20260905184558 | 63 | 238 | 0.0 | 5.0 | 0.00 | 0.03 | 0.01 | 64 | 1004.2 |
| 20260905183050 | 61 | 34 | 0.0 | 5.0 | 0.00 | 0.03 | 0.01 | 68 | 1004.3 |
| 20260905181540 | 59 | 44 | 0.0 | 5.0 | 0.00 | 0.03 | 0.01 | 73 | 1004.5 |
| 20260905180036 | 57 | 99 | 1.0 | 6.0 | 0.00 | 0.03 | 0.01 | 77 | 1004.7 |
| 20260905174532 | 56 | 356 | 2.0 | 6.0 | 0.00 | 0.03 | 0.01 | 81 | 1004.9 |
| 20260905173030 | 53 | 358 | 0.0 | 1.0 | 0.00 | 0.03 | 0.01 | 72 | 1004.8 |
| 20260905171526 | 51 | 243 | 0.0 | 1.0 | 0.00 | 0.03 | 0.01 | 69 | 1004.9 |
| 20260905170021 | 49 | 152 | 0.0 | 0.0 | 0.00 | 0.03 | 0.01 | 70 | 1005.0 |
| 20260905164526 | 47 | 253 | 0.0 | 0.0 | 0.00 | 0.03 | 0.01 | 70 | 1005.1 |
| 20260905163016 | 48 | 154 | 0.0 | 0.0 | 0.00 | 0.03 | 0.01 | 70 | 1005.2 |
| 20260905161513 | 46 | 153 | 0.0 | 1.0 | 0.00 | 0.03 | 0.01 | 70 | 1005.2 |
| 20260905160012 | 46 | 235 | 0.0 | 0.0 | 0.00 | 0.03 | 0.01 | 70 | 1005.2 |
| 20260905154507 | 45 | 240 | 0.0 | 0.0 | 0.00 | 0.04 | 0.01 | 70 | 1005.1 |
| 20260905153005 | 44 | 250 | 0.0 | 0.0 | 0.00 | 0.04 | 0.01 | 70 | 1005.1 |
| 20260905151503 | 44 | 41 | 0.0 | 0.0 | 0.00 | 0.04 | 0.01 | 70 | 1005.1 |
| 20260905150002 | 44 | 81 | 0.0 | 0.0 | 0.00 | 0.04 | 0.01 | 70 | 1005.1 |
| 20260905144602 | 44 | 343 | 0.0 | 0.0 | 0.00 | 0.04 | 0.01 | 70 | 1005.1 |
| 20260905143059 | 43 | 221 | 0.0 | 0.0 | 0.00 | 0.04 | 0.01 | 70 | 1005.1 |
| 20260905141559 | 41 | 51 | 0.0 | 0.0 | 0.00 | 0.04 | 0.01 | 70 | 1005.0 |
| 20260905140106 | 40 | 51 | 0.0 | 1.0 | 0.00 | 0.04 | 0.01 | 71 | 1004.8 |
| 20260905134554 | 39 | 70 | 0.0 | 0.0 | 0.00 | 0.04 | 0.01 | 71 | 1004.7 |
| 20260905133055 | 39 | 46 | 0.0 | 0.0 | 0.00 | 0.04 | 0.01 | 71 | 1004.6 |
| 20260905131605 | 39 | 44 | 0.0 | 0.0 | 0.00 | 0.04 | 0.01 | 71 | 1004.5 |
| 20260905130051 | 40 | 44 | 0.0 | 0.0 | 0.01 | 0.04 | 0.01 | 71 | 1004.4 |
| 20260905124550 | 40 | 44 | 0.0 | 0.0 | 0.01 | 0.04 | 0.01 | 71 | 1004.4 |
| 20260905123047 | 40 | 38 | 0.0 | 0.0 | 0.01 | 0.04 | 0.01 | 70 | 1004.3 |
| 20260905121547 | 40 | 38 | 0.0 | 0.0 | 0.01 | 0.04 | 0.01 | 70 | 1004.1 |
| 20260905120044 | 40 | 37 | 0.0 | 0.0 | 0.00 | 0.03 | 0.00 | 71 | 1004.0 |